Wind_Speed
58 57 56 55 53 53 52 50 47 41 39 42 44 44 41 42 43 43 41 42 48 48 47 45 43 42 43 44 44 43 42 42 36
58 55 55 54 52 51 50 48 43 39 41 41 38 42 42 47 41 41 42 46 46 48 45 44 43 43 42 42 41 41 40 35 37
55 53 51 51 50 49 47 45 41 40 41 34 36 43 43 39 43 44 44 46 48 49 46 44 42 43 42 42 40 39 37 39 41
51 46 47 49 48 46 44 40 39 39 38 40 45 47 49 49 49 48 46 48 48 49 45 44 46 46 45 43 41 41 43 45 46
44 41 45 46 43 40 40 37 36 37 39 41 45 50 53 52 50 47 49 49 52 50 46 46 48 48 47 47 45 48 49 49 49
39 41 43 42 38 37 39 39 41 42 40 42 49 48 47 49 51 52 56 53 53 52 47 48 48 47 48 47 48 49 54 55 54
39 40 41 40 38 38 39 40 43 44 44 43 47 49 52 52 56 51 49 51 54 53 51 50 50 48 48 49 50 52 54 58 59
39 39 39 38 37 38 40 41 45 49 48 44 48 51 54 54 48 52 53 57 61 56 55 54 52 51 50 50 50 52 55 58 62
41 40 38 37 37 38 40 42 45 44 44 44 48 53 50 54 54 57 61 67 65 61 60 58 56 55 54 53 54 56 58 59 61
42 42 40 37 37 38 41 44 47 48 50 50 53 56 57 61 63 67 67 70 70 65 63 60 60 61 61 58 57 60 62 63 65
42 43 42 38 38 39 41 45 47 54 55 59 59 64 69 69 71 72 72 70 68 69 64 62 64 66 64 63 63 62 66 68 69
41 43 42 41 39 40 42 46 51 54 57 63 66 72 72 74 75 71 68 68 71 67 68 70 71 68 65 64 63 63 65 68 71
39 40 42 43 42 42 42 44 51 56 60 65 67 69 67 69 70 70 72 69 68 69 72 72 68 68 69 69 69 69 71 73 75
38 38 39 42 43 43 44 46 50 54 57 60 61 63 64 66 66 67 67 70 71 73 72 71 73 74 75 75 77 78 79 81 82
39 40 41 43 43 44 45 48 50 52 53 56 59 61 64 64 66 68 72 74 75 74 75 77 79 80 81 83 86 87 87 88 90
40 44 45 45 45 47 48 49 50 53 54 56 59 63 67 69 72 73 75 76 77 78 81 83 85 87 90 91 92 94 96 96 97
42 44 44 45 48 49 52 54 57 59 61 62 65 68 73 74 76 76 78 79 81 84 87 90 92 94 96 98 100 102 104 104 106
44 45 46 47 49 50 51 55 56 61 65 67 67 68 70 72 77 80 84 86 88 91 94 97 100 101 103 105 107 110 111 112 112
48 48 50 50 50 52 56 59 62 64 67 71 75 76 76 78 75 81 87 90 93 98 101 104 105 107 109 112 115 115 117 121 122
49 52 54 55 56 58 60 63 65 67 70 72 76 80 84 87 87 84 90 93 95 96 100 104 107 111 115 118 121 124 127 126 126
Wind_Direction
288 286 287 286 285 284 279 268 259 255 248 247 252 261 267 272 274 279 281 285 288 289 287 288 283 280 276 275 275 272 271 266 257
286 285 285 284 284 284 276 262 254 249 246 253 257 265 272 274 274 281 285 289 293 293 287 287 283 282 279 277 278 275 267 255 259
285 284 284 283 283 281 270 256 248 247 253 256 264 268 263 273 282 284 281 289 293 293 287 286 286 282 283 281 278 272 261 260 263
283 281 281 283 284 278 266 252 247 249 255 263 264 262 262 273 282 284 280 289 293 293 291 289 287 282 278 277 270 261 260 260 261
281 280 283 284 283 274 261 250 244 245 249 250 258 262 264 271 275 274 283 287 290 292 293 293 290 284 278 275 268 260 256 260 263
277 280 282 281 277 266 254 246 241 245 252 259 261 266 265 264 269 278 279 281 288 290 292 292 293 287 279 272 266 262 259 258 258
276 280 281 277 271 262 251 245 241 243 247 265 264 263 262 268 273 274 281 284 289 289 289 292 291 289 282 277 269 264 263 262 261
279 281 282 277 271 265 257 249 246 246 252 264 265 264 266 265 269 276 283 286 287 288 289 289 292 290 285 279 274 269 265 262 261
283 282 280 276 271 262 259 253 250 247 255 264 266 266 265 270 277 279 282 283 286 286 287 286 288 287 285 280 275 271 267 264 263
285 285 279 273 271 263 258 255 250 249 253 259 265 267 269 273 278 279 282 283 284 283 286 283 285 287 286 280 278 271 269 266 265
287 284 279 272 269 265 260 258 255 250 253 261 262 267 269 273 274 276 280 282 282 283 282 283 284 284 283 281 279 275 269 268 268
284 284 281 276 269 267 263 259 257 258 260 262 263 266 269 271 275 277 277 280 282 284 286 285 286 283 280 278 277 275 272 270 269
285 283 282 279 274 271 266 262 258 258 261 264 267 269 272 273 274 278 278 279 280 282 284 284 283 282 281 278 276 274 273 271 269
286 284 283 282 279 274 272 269 265 264 266 267 269 271 274 276 277 277 280 281 282 282 281 281 282 280 279 277 275 274 273 273 273
289 288 286 283 281 280 277 274 274 273 273 274 275 276 276 277 277 279 280 280 281 280 278 278 278 278 277 278 279 278 277 276 276
295 293 292 289 287 286 284 282 280 279 278 276 277 277 278 279 279 280 281 281 282 280 280 281 280 280 280 279 278 278 278 277 276
297 298 296 294 290 288 286 284 283 283 282 280 279 278 281 281 281 282 281 280 280 281 281 282 282 283 282 282 281 280 279 280 280
294 294 295 295 293 290 289 288 287 286 286 284 281 280 281 280 283 285 285 286 286 286 286 286 285 285 284 283 281 281 280 280 278
292 292 291 289 289 289 288 287 287 286 286 286 287 285 282 279 277 281 283 284 286 287 286 285 284 282 282 281 281 281 281 280 279
292 292 293 292 291 290 289 288 289 290 289 286 286 286 286 285 284 280 280 283 283 283 284 284 283 282 282 282 281 280 280 280 279
Height
10837 10834 10831 10828 10825 10821 10818 10816 10816 10818 10820 10821 10822 10823 10823 10823 10823 10821 10819 10818 10817 10814 10812 10810 10808 10807 10806 10805 10804 10803 10802 10803 10804
10825 10822 10819 10817 10813 10810 10807 10806 10807 10809 10811 10814 10816 10817 10817 10816 10814 10813 10811 10809 10808 10805 10803 10801 10800 10798 10797 10796 10795 10794 10793 10795 10796
10813 10810 10808 10806 10802 10799 10796 10796 10798 10801 10805 10809 10811 10811 10809 10807 10805 10804 10802 10800 10799 10796 10794 10793 10791 10789 10788 10787 10786 10786 10786 10787 10786
10801 10800 10798 10795 10792 10789 10788 10789 10792 10797 10800 10802 10801 10800 10799 10798 10796 10795 10793 10791 10789 10787 10784 10783 10781 10780 10778 10777 10777 10777 10777 10777 10776
10792 10791 10789 10786 10783 10781 10782 10784 10787 10788 10789 10789 10789 10791 10791 10789 10787 10785 10783 10782 10780 10779 10775 10773 10771 10769 10767 10767 10766 10766 10766 10766 10766
10783 10781 10779 10776 10774 10773 10773 10774 10776 10778 10780 10782 10783 10783 10781 10779 10777 10774 10774 10773 10772 10769 10766 10764 10761 10758 10756 10755 10754 10754 10754 10753 10753
10773 10771 10769 10766 10764 10764 10764 10766 10768 10770 10772 10773 10773 10772 10771 10769 10767 10765 10763 10762 10761 10759 10756 10753 10751 10748 10745 10744 10743 10742 10741 10741 10741
10765 10762 10760 10759 10758 10757 10757 10758 10759 10761 10763 10764 10763 10762 10761 10759 10755 10754 10752 10750 10750 10748 10745 10742 10740 10737 10735 10733 10731 10729 10728 10727 10726
10757 10754 10752 10750 10749 10749 10749 10750 10752 10753 10754 10754 10754 10752 10749 10746 10744 10742 10740 10739 10738 10736 10734 10731 10728 10726 10724 10721 10719 10716 10715 10713 10712
10749 10747 10744 10742 10741 10739 10740 10741 10742 10743 10743 10743 10742 10739 10737 10735 10734 10732 10729 10726 10724 10721 10719 10717 10715 10713 10710 10707 10705 10702 10700 10699 10698
10741 10739 10736 10733 10732 10731 10731 10732 10732 10732 10732 10731 10730 10727 10724 10722 10721 10720 10717 10713 10709 10705 10703 10702 10700 10698 10695 10692 10688 10685 10683 10681 10680
10732 10730 10727 10725 10724 10722 10722 10722 10721 10722 10722 10720 10718 10714 10711 10709 10708 10706 10704 10700 10693 10691 10688 10684 10681 10680 10678 10675 10671 10667 10665 10663 10662
10724 10721 10720 10717 10716 10714 10713 10711 10710 10709 10709 10706 10704 10700 10698 10695 10693 10693 10688 10684 10680 10676 10673 10668 10665 10660 10657 10654 10652 10651 10646 10643 10642
10716 10713 10711 10709 10707 10705 10702 10700 10698 10697 10696 10694 10690 10687 10684 10681 10680 10675 10673 10667 10664 10659 10655 10651 10647 10641 10636 10635 10631 10629 10626 10623 10620
10708 10704 10702 10700 10698 10695 10693 10690 10688 10686 10684 10681 10678 10674 10669 10668 10664 10661 10655 10651 10645 10640 10637 10633 10627 10623 10619 10613 10606 10604 10604 10601 10598
10699 10696 10693 10691 10688 10685 10683 10680 10676 10673 10673 10670 10666 10662 10655 10652 10646 10643 10638 10632 10626 10620 10615 10610 10605 10600 10594 10589 10584 10578 10574 10574 10574
10691 10688 10683 10680 10677 10674 10671 10668 10664 10659 10657 10655 10652 10649 10639 10634 10629 10624 10618 10612 10607 10600 10593 10587 10580 10573 10568 10562 10555 10549 10545 10545 10542
10682 10678 10674 10670 10666 10663 10659 10655 10652 10646 10640 10636 10636 10634 10629 10624 10612 10604 10595 10591 10584 10574 10567 10559 10551 10543 10537 10529 10524 10517 10513 10511 10508
10672 10667 10663 10659 10655 10650 10646 10642 10637 10632 10625 10618 10611 10608 10607 10604 10609 10595 10579 10570 10562 10552 10543 10532 10523 10515 10506 10498 10490 10485 10478 10472 10469
10661 10656 10651 10646 10642 10636 10630 10624 10619 10614 10608 10600 10593 10585 10576 10568 10568 10577 10563 10552 10539 10530 10520 10507 10496 10484 10474 10468 10457 10449 10439 10430 10427